RADUGA 32

Satellite information

Favourite Embed

Satellite Type and Status

PAYLOADIN ORBIT

Key statistics

Satellite RADUGA 32 at a glance.

Uptime

11213

Days in orbit

Revolutions

≈ 1.0

Per day

Orbit

OTHER

Other

Inclination

14.4

Latest

Satellite identification and parameters

Extended collection of information and parameters for RADUGA 32.

Object identification

Identified? True

Debris? False

Object name: RADUGA 32

International designator: 1994-087A

Object number (NORAD): 23448

Object ID (CCSDS): 23448

Country: COMMONWEALTH OF INDEPENDENT STATES (CIS)

Current information (Y/N): Y

RCS size: LARGE

Orbital parameters

Period: 1435.926 minutes

Inclination: 14.3836 deg

SMA: 42161.394 km

Apoapsis: 35818.514 km

Periapsis: 35748.004 km

RAAN: 353.0833 deg

Eccentricy: 0.00083619

Argument of periapsis: 245.6669 deg

Mean anomaly: 11.0419 deg

Mean motion: 1.00283694 rev/day

Mean motion (dot): -0.00000093 rev/day2

B* drag term: 0.0 1/REarth

Two-line elements (TLE)

Creation date: Sept. 8, 2025, 6:18 p.m.

Reference frame: TEME

Reference center: EARTH

Epoch: Sept. 8, 2025, 12:34 p.m. UTC

TLE line 0: 0 RADUGA 32

TLE line 1: 1 23448U 94087A 25251.52413497 -.00000093 00000-0 00000-0 0 9992

TLE line 2: 2 23448 14.3836 353.0833 0008362 245.6669 11.0419 1.00283694130058

Live tracking on map

Real-time ground track for satellite RADUGA 32.

In-orbit conjunctions

A list of the most updated potential collisions computed for object RADUGA 32.

Target Orbit TCA Probability of collision Miss distance Type
ELEKTRO (GOMS) OTHER 2025-06-05 21:36:28 TBA 4086.0 (m) PAYLOAD
EKRAN 3 OTHER 2025-04-27 06:16:14 TBA 1149.0 (m) PAYLOAD

Associated space launch

Geostationary communications satellite for military and governmental puposes

RADUGA 32 was lifted into orbit during the mission ‘Proton | Raduga 32’, on board a Proton space rocket.

The launch took place on Dec. 28, 1994, 11:31 a.m. from 81/23 (81L).

For more information about the launch, click the button.

Launch to space Proton | Raduga 32
Proton | Raduga 32

Agency: N/A

Status: Launch Successful

Launch date: Dec. 28, 1994, 11:31 a.m. UTC

Rocket: Proton

Launch pad: 81/23 (81L)

Location: Baikonur Cosmodrome, Republic of Kazakhstan

...

Latest news about this satellite

There are no fresh news available about this satellite. Check back as we update our databases every day.


Newsletter sign-up

Weekly statistics, charts and insights to help you stay on top of the space industry.